| time (UTC) | temp F | wind direction | speed MPH | gust MPH | rain 1hr in | rain 24hr in | rain mn in | humidity % | barometer mb |
| 20260509164604 | 60 | 212 | 2.0 | 3.0 | 0.00 | 0.00 | 0.00 | 77 | 1019.3 |
| 20260509163605 | 60 | 213 | 1.0 | 5.0 | 0.00 | 0.00 | 0.00 | 78 | 1019.4 |
| 20260509163105 | 59 | 214 | 1.0 | 8.0 | 0.00 | 0.00 | 0.00 | 79 | 1019.5 |
| 20260509162604 | 59 | 214 | 1.0 | 8.0 | 0.00 | 0.00 | 0.00 | 78 | 1019.5 |
| 20260509162104 | 59 | 212 | 1.0 | 3.0 | 0.00 | 0.00 | 0.00 | 79 | 1019.5 |
| 20260509161604 | 58 | 214 | 1.0 | 3.0 | 0.00 | 0.00 | 0.00 | 80 | 1019.5 |
| 20260509161104 | 58 | 202 | 1.0 | 3.0 | 0.00 | 0.00 | 0.00 | 82 | 1019.4 |
| 20260509160604 | 58 | 211 | 2.0 | 7.0 | 0.00 | 0.00 | 0.00 | 82 | 1019.4 |
| 20260509160104 | 57 | 214 | 1.0 | 7.0 | 0.00 | 0.00 | 0.00 | 83 | 1019.3 |
| 20260509155604 | 57 | 212 | 1.0 | 7.0 | 0.00 | 0.00 | 0.00 | 84 | 1019.4 |
| 20260509155104 | 56 | 204 | 0.0 | 5.0 | 0.00 | 0.00 | 0.00 | 85 | 1019.4 |
| 20260509154105 | 56 | 212 | 1.0 | 3.0 | 0.00 | 0.00 | 0.00 | 87 | 1019.5 |
| 20260509153604 | 55 | 212 | 1.0 | 3.0 | 0.00 | 0.00 | 0.00 | 87 | 1019.5 |
| 20260509153105 | 55 | 212 | 1.0 | 3.0 | 0.00 | 0.00 | 0.00 | 88 | 1019.6 |
| 20260509152604 | 55 | 216 | 0.0 | 3.0 | 0.00 | 0.00 | 0.00 | 89 | 1019.7 |
| 20260509152105 | 55 | 216 | 0.0 | 3.0 | 0.00 | 0.00 | 0.00 | 89 | 1019.8 |
| 20260509151604 | 54 | 284 | 0.0 | 3.0 | 0.00 | 0.00 | 0.00 | 89 | 1019.7 |
| 20260509150604 | 54 | 195 | 1.0 | 3.0 | 0.00 | 0.00 | 0.00 | 89 | 1019.8 |
| 20260509150105 | 54 | 195 | 1.0 | 2.0 | 0.00 | 0.00 | 0.00 | 89 | 1019.9 |
| 20260509145605 | 53 | 195 | 0.0 | 1.0 | 0.00 | 0.00 | 0.00 | 90 | 1019.8 |
| 20260509145104 | 53 | 199 | 0.0 | 1.0 | 0.00 | 0.00 | 0.00 | 89 | 1019.7 |
| 20260509144104 | 52 | 196 | 0.0 | 1.0 | 0.00 | 0.00 | 0.00 | 89 | 1019.7 |
| 20260509143605 | 52 | 195 | 0.0 | 1.0 | 0.00 | 0.00 | 0.00 | 89 | 1019.8 |
| 20260509142603 | 51 | 195 | 0.0 | 1.0 | 0.00 | 0.00 | 0.00 | 89 | 1019.8 |
| 20260509142104 | 51 | 195 | 0.0 | 1.0 | 0.00 | 0.00 | 0.00 | 89 | 1019.8 |
| 20260509141604 | 50 | 195 | 0.0 | 0.0 | 0.00 | 0.00 | 0.00 | 89 | 1019.9 |
| 20260509141103 | 50 | 197 | 0.0 | 0.0 | 0.00 | 0.00 | 0.00 | 88 | 1019.9 |
| 20260509140604 | 49 | 195 | 0.0 | 0.0 | 0.00 | 0.00 | 0.00 | 88 | 1019.9 |
| 20260509140104 | 49 | 195 | 0.0 | 0.0 | 0.00 | 0.00 | 0.00 | 88 | 1019.9 |
| 20260509135605 | 48 | 195 | 0.0 | 0.0 | 0.00 | 0.00 | 0.00 | 87 | 1019.9 |
| 20260509135104 | 48 | 195 | 0.0 | 0.0 | 0.00 | 0.00 | 0.00 | 87 | 1019.9 |
| 20260509134604 | 48 | 198 | 0.0 | 0.0 | 0.00 | 0.00 | 0.00 | 87 | 1019.9 |
| 20260509134105 | 48 | 195 | 0.0 | 0.0 | 0.00 | 0.00 | 0.00 | 87 | 1019.8 |
| 20260509133603 | 48 | 197 | 0.0 | 0.0 | 0.00 | 0.00 | 0.00 | 87 | 1019.7 |
| 20260509133105 | 48 | 196 | 0.0 | 0.0 | 0.00 | 0.00 | 0.00 | 87 | 1019.8 |
| 20260509131605 | 48 | 195 | 0.0 | 0.0 | 0.00 | 0.00 | 0.00 | 86 | 1020.0 |
| 20260509130607 | 49 | 200 | 0.0 | 0.0 | 0.00 | 0.00 | 0.00 | 86 | 1019.9 |
| 20260509125103 | 49 | 197 | 0.0 | 0.0 | 0.00 | 0.00 | 0.00 | 86 | 1020.2 |
| 20260509124603 | 49 | 195 | 0.0 | 0.0 | 0.00 | 0.00 | 0.00 | 86 | 1020.1 |
| 20260509124105 | 49 | 195 | 0.0 | 0.0 | 0.00 | 0.00 | 0.00 | 86 | 1020.1 |
| 20260509123604 | 49 | 195 | 0.0 | 0.0 | 0.00 | 0.00 | 0.00 | 85 | 1020.1 |
| 20260509123103 | 49 | 195 | 0.0 | 0.0 | 0.00 | 0.00 | 0.00 | 85 | 1020.1 |
| 20260509122603 | 50 | 195 | 0.0 | 0.0 | 0.00 | 0.00 | 0.00 | 85 | 1020.1 |
| 20260509122104 | 50 | 195 | 0.0 | 0.0 | 0.00 | 0.00 | 0.00 | 85 | 1020.1 |
| 20260509121604 | 50 | 195 | 0.0 | 0.0 | 0.00 | 0.00 | 0.00 | 85 | 1020.2 |
| 20260509121104 | 50 | 195 | 0.0 | 0.0 | 0.00 | 0.00 | 0.00 | 85 | 1020.3 |
| 20260509120605 | 50 | 195 | 0.0 | 0.0 | 0.00 | 0.00 | 0.00 | 85 | 1020.4 |
| 20260509120103 | 51 | 195 | 0.0 | 0.0 | 0.00 | 0.00 | 0.00 | 85 | 1020.4 |
| 20260509115605 | 51 | 195 | 0.0 | 0.0 | 0.00 | 0.00 | 0.00 | 85 | 1020.5 |
| 20260509115103 | 51 | 195 | 0.0 | 0.0 | 0.00 | 0.00 | 0.00 | 85 | 1020.5 |
| 20260509114604 | 51 | 195 | 0.0 | 0.0 | 0.00 | 0.00 | 0.00 | 85 | 1020.5 |
| 20260509114104 | 52 | 195 | 0.0 | 0.0 | 0.00 | 0.00 | 0.00 | 85 | 1020.6 |
| 20260509113604 | 52 | 195 | 0.0 | 0.0 | 0.00 | 0.00 | 0.00 | 85 | 1020.6 |
| 20260509113104 | 52 | 195 | 0.0 | 0.0 | 0.00 | 0.00 | 0.00 | 86 | 1020.6 |
| 20260509112104 | 52 | 195 | 0.0 | 0.0 | 0.00 | 0.00 | 0.00 | 86 | 1020.6 |
| 20260509111603 | 52 | 195 | 0.0 | 0.0 | 0.00 | 0.00 | 0.00 | 86 | 1020.6 |
| 20260509111104 | 52 | 195 | 0.0 | 0.0 | 0.00 | 0.00 | 0.00 | 86 | 1020.6 |
| 20260509110605 | 53 | 195 | 0.0 | 0.0 | 0.00 | 0.00 | 0.00 | 86 | 1020.6 |
| 20260509110104 | 53 | 195 | 0.0 | 0.0 | 0.00 | 0.00 | 0.00 | 86 | 1020.7 |
| 20260509105603 | 53 | 195 | 0.0 | 0.0 | 0.00 | 0.00 | 0.00 | 86 | 1020.7 |
| 20260509105105 | 53 | 195 | 0.0 | 0.0 | 0.00 | 0.00 | 0.00 | 86 | 1020.7 |
| 20260509104604 | 53 | 195 | 0.0 | 0.0 | 0.00 | 0.00 | 0.00 | 86 | 1020.7 |
| 20260509103604 | 53 | 196 | 0.0 | 0.0 | 0.00 | 0.00 | 0.00 | 86 | 1020.8 |
| 20260509103104 | 53 | 195 | 0.0 | 0.0 | 0.00 | 0.00 | 0.00 | 86 | 1020.8 |
| 20260509102603 | 53 | 198 | 0.0 | 0.0 | 0.00 | 0.00 | 0.00 | 86 | 1020.9 |
| 20260509102105 | 53 | 196 | 0.0 | 0.0 | 0.00 | 0.00 | 0.00 | 86 | 1020.8 |
| 20260509101603 | 53 | 200 | 0.0 | 0.0 | 0.00 | 0.00 | 0.00 | 86 | 1020.8 |
| 20260509100604 | 53 | 199 | 0.0 | 0.0 | 0.00 | 0.00 | 0.00 | 86 | 1021.0 |
| 20260509100104 | 53 | 200 | 0.0 | 0.0 | 0.00 | 0.00 | 0.00 | 86 | 1021.0 |
| 20260509095605 | 53 | 198 | 0.0 | 0.0 | 0.00 | 0.00 | 0.00 | 86 | 1021.0 |
| 20260509095105 | 53 | 199 | 0.0 | 0.0 | 0.00 | 0.00 | 0.00 | 86 | 1020.9 |
| 20260509094605 | 53 | 200 | 0.0 | 0.0 | 0.00 | 0.00 | 0.00 | 86 | 1020.9 |
| 20260509094104 | 53 | 198 | 0.0 | 0.0 | 0.00 | 0.00 | 0.00 | 86 | 1020.9 |
| 20260509093604 | 53 | 197 | 0.0 | 0.0 | 0.00 | 0.00 | 0.00 | 86 | 1020.9 |
| 20260509093104 | 53 | 197 | 0.0 | 0.0 | 0.00 | 0.00 | 0.00 | 86 | 1021.0 |
| 20260509092603 | 53 | 196 | 0.0 | 0.0 | 0.00 | 0.00 | 0.00 | 86 | 1020.9 |
| 20260509092104 | 53 | 197 | 0.0 | 0.0 | 0.00 | 0.00 | 0.00 | 85 | 1021.0 |
| 20260509091604 | 53 | 196 | 0.0 | 0.0 | 0.00 | 0.00 | 0.00 | 85 | 1021.0 |
| 20260509091105 | 53 | 196 | 0.0 | 0.0 | 0.00 | 0.00 | 0.00 | 85 | 1021.0 |
| 20260509090605 | 53 | 195 | 0.0 | 0.0 | 0.00 | 0.00 | 0.00 | 85 | 1021.0 |
| 20260509090105 | 53 | 197 | 0.0 | 0.0 | 0.00 | 0.00 | 0.00 | 85 | 1021.1 |
| 20260509085606 | 53 | 196 | 0.0 | 0.0 | 0.00 | 0.00 | 0.00 | 85 | 1021.2 |
| 20260509085106 | 53 | 195 | 0.0 | 0.0 | 0.00 | 0.00 | 0.00 | 85 | 1021.2 |
| 20260509084605 | 53 | 195 | 0.0 | 0.0 | 0.00 | 0.00 | 0.00 | 85 | 1021.2 |
| 20260509084106 | 53 | 195 | 0.0 | 0.0 | 0.00 | 0.00 | 0.00 | 85 | 1021.3 |
| 20260509083606 | 53 | 195 | 0.0 | 0.0 | 0.00 | 0.00 | 0.00 | 85 | 1021.3 |
| 20260509083105 | 53 | 195 | 0.0 | 0.0 | 0.00 | 0.00 | 0.00 | 85 | 1021.3 |
| 20260509082605 | 53 | 195 | 0.0 | 0.0 | 0.00 | 0.00 | 0.00 | 85 | 1021.4 |
| 20260509082106 | 53 | 195 | 0.0 | 0.0 | 0.00 | 0.00 | 0.00 | 85 | 1021.4 |
| 20260509081605 | 53 | 195 | 0.0 | 0.0 | 0.00 | 0.00 | 0.00 | 85 | 1021.4 |
| 20260509081105 | 54 | 195 | 0.0 | 0.0 | 0.00 | 0.00 | 0.00 | 85 | 1021.4 |
| 20260509080605 | 54 | 195 | 0.0 | 0.0 | 0.00 | 0.00 | 0.00 | 85 | 1021.4 |
| 20260509080107 | 54 | 195 | 0.0 | 0.0 | 0.00 | 0.00 | 0.00 | 85 | 1021.4 |
| 20260509075106 | 54 | 195 | 0.0 | 1.0 | 0.00 | 0.00 | 0.00 | 85 | 1021.3 |
| 20260509074605 | 54 | 195 | 0.0 | 0.0 | 0.00 | 0.00 | 0.00 | 85 | 1021.3 |
| 20260509074105 | 54 | 195 | 0.0 | 0.0 | 0.00 | 0.00 | 0.00 | 85 | 1021.3 |
| 20260509073105 | 54 | 195 | 0.0 | 1.0 | 0.00 | 0.00 | 0.00 | 85 | 1021.5 |
| 20260509072606 | 54 | 195 | 0.0 | 1.0 | 0.00 | 0.00 | 0.00 | 85 | 1021.5 |
| 20260509072106 | 54 | 195 | 0.0 | 1.0 | 0.00 | 0.00 | 0.00 | 85 | 1021.4 |
| 20260509071606 | 54 | 195 | 0.0 | 1.0 | 0.00 | 0.00 | 0.00 | 85 | 1021.4 |
| 20260509071109 | 54 | 195 | 0.0 | 2.0 | 0.00 | 0.00 | 0.00 | 85 | 1021.4 |
| 20260509070605 | 54 | 195 | 0.0 | 2.0 | 0.00 | 0.00 | 0.00 | 85 | 1021.4 |
| 20260509070106 | 54 | 195 | 0.0 | 1.0 | 0.00 | 0.00 | 0.00 | 85 | 1021.4 |
| 20260509065605 | 54 | 195 | 0.0 | 1.0 | 0.00 | 0.00 | 0.00 | 85 | 1021.5 |
| 20260509065105 | 54 | 195 | 0.0 | 1.0 | 0.00 | 0.00 | 0.00 | 85 | 1021.4 |
| 20260509064609 | 54 | 195 | 0.0 | 1.0 | 0.00 | 0.00 | 0.00 | 85 | 1021.4 |
| 20260509063605 | 54 | 195 | 0.0 | 2.0 | 0.00 | 0.00 | 0.00 | 85 | 1021.4 |
| 20260509062605 | 54 | 195 | 0.0 | 1.0 | 0.00 | 0.00 | 0.00 | 84 | 1021.4 |
| 20260509062105 | 54 | 195 | 0.0 | 0.0 | 0.00 | 0.00 | 0.00 | 84 | 1021.4 |
| 20260509061605 | 54 | 195 | 0.0 | 0.0 | 0.00 | 0.00 | 0.00 | 84 | 1021.4 |
| 20260509061106 | 54 | 195 | 0.0 | 0.0 | 0.00 | 0.00 | 0.00 | 84 | 1021.4 |
| 20260509060605 | 54 | 195 | 0.0 | 1.0 | 0.00 | 0.00 | 0.00 | 84 | 1021.4 |
| 20260509055606 | 54 | 195 | 0.0 | 1.0 | 0.00 | 0.00 | 0.00 | 84 | 1021.4 |
| 20260509055105 | 54 | 195 | 0.0 | 1.0 | 0.00 | 0.00 | 0.00 | 83 | 1021.4 |
| 20260509054605 | 54 | 195 | 0.0 | 1.0 | 0.00 | 0.00 | 0.00 | 84 | 1021.4 |
| 20260509054105 | 54 | 195 | 0.0 | 1.0 | 0.00 | 0.00 | 0.00 | 84 | 1021.4 |
| 20260509053606 | 54 | 195 | 0.0 | 1.0 | 0.00 | 0.00 | 0.00 | 83 | 1021.4 |
| 20260509053104 | 54 | 195 | 0.0 | 1.0 | 0.00 | 0.00 | 0.00 | 83 | 1021.4 |
| 20260509052605 | 54 | 195 | 0.0 | 0.0 | 0.00 | 0.00 | 0.00 | 83 | 1021.4 |
| 20260509052106 | 54 | 195 | 0.0 | 0.0 | 0.00 | 0.00 | 0.00 | 83 | 1021.4 |
| 20260509051605 | 54 | 195 | 0.0 | 0.0 | 0.00 | 0.00 | 0.00 | 83 | 1021.4 |
| 20260509051105 | 54 | 195 | 0.0 | 0.0 | 0.00 | 0.00 | 0.00 | 83 | 1021.4 |
| 20260509050605 | 55 | 195 | 0.0 | 0.0 | 0.00 | 0.00 | 0.00 | 83 | 1021.4 |
| 20260509045605 | 55 | 195 | 0.0 | 0.0 | 0.00 | 0.00 | 0.00 | 83 | 1021.4 |
| 20260509045105 | 55 | 195 | 0.0 | 0.0 | 0.00 | 0.00 | 0.00 | 83 | 1021.4 |
| 20260509044605 | 55 | 195 | 0.0 | 0.0 | 0.00 | 0.00 | 0.00 | 83 | 1021.3 |
| 20260509043605 | 55 | 195 | 0.0 | 0.0 | 0.00 | 0.00 | 0.00 | 83 | 1021.2 |
| 20260509043105 | 55 | 195 | 0.0 | 1.0 | 0.00 | 0.00 | 0.00 | 83 | 1021.2 |
| 20260509042605 | 55 | 195 | 0.0 | 1.0 | 0.00 | 0.00 | 0.00 | 83 | 1021.1 |
| 20260509042105 | 55 | 195 | 0.0 | 1.0 | 0.00 | 0.00 | 0.00 | 83 | 1021.1 |
| 20260509040606 | 55 | 195 | 0.0 | 0.0 | 0.00 | 0.00 | 0.00 | 83 | 1021.2 |
| 20260509040106 | 55 | 195 | 0.0 | 1.0 | 0.00 | 0.00 | 0.00 | 82 | 1021.2 |
| 20260509035606 | 55 | 195 | 0.0 | 1.0 | 0.00 | 0.00 | 0.00 | 82 | 1021.2 |
| 20260509035105 | 56 | 195 | 0.0 | 1.0 | 0.00 | 0.00 | 0.00 | 82 | 1021.2 |
| 20260509034605 | 56 | 195 | 0.0 | 1.0 | 0.00 | 0.00 | 0.00 | 82 | 1021.2 |
| 20260509034105 | 56 | 195 | 0.0 | 1.0 | 0.00 | 0.00 | 0.00 | 82 | 1021.2 |
| 20260509033105 | 56 | 195 | 0.0 | 1.0 | 0.00 | 0.00 | 0.00 | 82 | 1021.2 |
| 20260509032605 | 56 | 195 | 0.0 | 2.0 | 0.00 | 0.00 | 0.00 | 82 | 1021.2 |
| 20260509032106 | 56 | 195 | 0.0 | 3.0 | 0.00 | 0.00 | 0.00 | 82 | 1021.2 |
| 20260509031105 | 56 | 195 | 0.0 | 2.0 | 0.00 | 0.00 | 0.00 | 81 | 1021.2 |
| 20260509030605 | 56 | 195 | 0.0 | 2.0 | 0.00 | 0.00 | 0.00 | 81 | 1021.2 |
| 20260509030104 | 56 | 195 | 0.0 | 2.0 | 0.00 | 0.00 | 0.00 | 81 | 1021.2 |
| 20260509025605 | 57 | 195 | 0.0 | 1.0 | 0.00 | 0.00 | 0.00 | 81 | 1021.2 |
| 20260509024605 | 57 | 195 | 1.0 | 3.0 | 0.00 | 0.00 | 0.00 | 80 | 1021.2 |
| 20260509024105 | 57 | 195 | 1.0 | 3.0 | 0.00 | 0.00 | 0.00 | 81 | 1021.2 |
| 20260509023605 | 57 | 207 | 1.0 | 2.0 | 0.00 | 0.00 | 0.00 | 80 | 1021.3 |
| 20260509023106 | 57 | 207 | 0.0 | 2.0 | 0.00 | 0.00 | 0.00 | 80 | 1021.2 |
| 20260509022605 | 57 | 207 | 0.0 | 2.0 | 0.00 | 0.00 | 0.00 | 81 | 1021.2 |
| 20260509022105 | 57 | 210 | 0.0 | 2.0 | 0.00 | 0.00 | 0.00 | 80 | 1021.2 |
| 20260509021606 | 57 | 210 | 0.0 | 2.0 | 0.00 | 0.00 | 0.00 | 81 | 1021.3 |
| 20260509021105 | 57 | 211 | 0.0 | 2.0 | 0.00 | 0.00 | 0.00 | 81 | 1021.3 |
| 20260509020605 | 57 | 211 | 0.0 | 2.0 | 0.00 | 0.00 | 0.00 | 80 | 1021.3 |
| 20260509020106 | 57 | 211 | 0.0 | 2.0 | 0.00 | 0.00 | 0.00 | 80 | 1021.3 |
| 20260509015604 | 58 | 197 | 0.0 | 3.0 | 0.00 | 0.00 | 0.00 | 80 | 1021.3 |
| 20260509015105 | 58 | 195 | 1.0 | 3.0 | 0.00 | 0.00 | 0.00 | 79 | 1021.2 |
| 20260509014605 | 58 | 195 | 1.0 | 3.0 | 0.00 | 0.00 | 0.00 | 79 | 1021.2 |
| 20260509014105 | 58 | 195 | 1.0 | 3.0 | 0.00 | 0.00 | 0.00 | 79 | 1021.3 |
| 20260509013604 | 58 | 195 | 1.0 | 3.0 | 0.00 | 0.00 | 0.00 | 79 | 1021.3 |
| 20260509013105 | 58 | 208 | 0.0 | 3.0 | 0.00 | 0.00 | 0.00 | 79 | 1021.3 |
| 20260509012606 | 58 | 209 | 1.0 | 3.0 | 0.00 | 0.00 | 0.00 | 79 | 1021.3 |
| 20260509012104 | 58 | 195 | 2.0 | 3.0 | 0.00 | 0.00 | 0.00 | 79 | 1021.3 |
| 20260509011607 | 58 | 207 | 1.0 | 2.0 | 0.00 | 0.00 | 0.00 | 79 | 1021.3 |
| 20260509010605 | 58 | 209 | 1.0 | 3.0 | 0.00 | 0.00 | 0.00 | 79 | 1021.3 |
| 20260509010104 | 58 | 208 | 1.0 | 3.0 | 0.00 | 0.00 | 0.00 | 79 | 1021.3 |
| 20260509005105 | 58 | 211 | 1.0 | 3.0 | 0.00 | 0.00 | 0.00 | 78 | 1021.3 |
| 20260509003605 | 58 | 195 | 1.0 | 3.0 | 0.00 | 0.00 | 0.00 | 78 | 1021.3 |
| 20260509003106 | 58 | 195 | 1.0 | 3.0 | 0.00 | 0.00 | 0.00 | 78 | 1021.4 |
| 20260509002604 | 58 | 209 | 2.0 | 3.0 | 0.00 | 0.00 | 0.00 | 78 | 1021.4 |
| 20260509002106 | 58 | 210 | 1.0 | 3.0 | 0.00 | 0.00 | 0.00 | 78 | 1021.4 |
| 20260509001604 | 59 | 212 | 1.0 | 3.0 | 0.00 | 0.00 | 0.00 | 79 | 1021.5 |
| 20260509001106 | 59 | 203 | 1.0 | 3.0 | 0.00 | 0.00 | 0.00 | 79 | 1021.6 |
| 20260509000104 | 58 | 210 | 0.0 | 3.0 | 0.00 | 0.00 | 0.00 | 78 | 1021.5 |
| 20260508235606 | 58 | 197 | 1.0 | 5.0 | 0.00 | 0.00 | 0.00 | 78 | 1021.5 |
| 20260508234106 | 59 | 195 | 1.0 | 3.0 | 0.00 | 0.00 | 0.00 | 77 | 1021.7 |
| 20260508233605 | 59 | 195 | 1.0 | 5.0 | 0.00 | 0.00 | 0.00 | 77 | 1021.7 |
| 20260508233106 | 59 | 195 | 2.0 | 5.0 | 0.00 | 0.00 | 0.00 | 78 | 1021.6 |
| 20260508232604 | 59 | 197 | 1.0 | 5.0 | 0.00 | 0.00 | 0.00 | 77 | 1021.7 |
| 20260508232105 | 59 | 209 | 1.0 | 5.0 | 0.00 | 0.00 | 0.00 | 78 | 1021.7 |
| 20260508231604 | 59 | 209 | 0.0 | 5.0 | 0.00 | 0.00 | 0.00 | 78 | 1021.7 |
| 20260508231105 | 59 | 213 | 1.0 | 3.0 | 0.00 | 0.00 | 0.00 | 78 | 1021.6 |
| 20260508230604 | 58 | 213 | 0.0 | 3.0 | 0.00 | 0.00 | 0.00 | 77 | 1021.7 |
| 20260508230105 | 58 | 212 | 1.0 | 3.0 | 0.00 | 0.00 | 0.00 | 76 | 1021.7 |
| 20260508225605 | 59 | 209 | 1.0 | 3.0 | 0.00 | 0.00 | 0.00 | 77 | 1021.7 |
| 20260508225105 | 58 | 199 | 1.0 | 3.0 | 0.00 | 0.00 | 0.00 | 76 | 1021.7 |
| 20260508224104 | 58 | 209 | 1.0 | 3.0 | 0.00 | 0.00 | 0.00 | 77 | 1021.6 |
| 20260508223605 | 58 | 213 | 1.0 | 3.0 | 0.00 | 0.00 | 0.00 | 77 | 1021.6 |
| 20260508223104 | 57 | 210 | 1.0 | 3.0 | 0.00 | 0.00 | 0.00 | 76 | 1021.7 |
| 20260508222605 | 58 | 195 | 1.0 | 3.0 | 0.00 | 0.00 | 0.00 | 76 | 1021.7 |
| 20260508222105 | 58 | 210 | 1.0 | 3.0 | 0.00 | 0.00 | 0.00 | 76 | 1021.7 |
| 20260508221604 | 58 | 199 | 1.0 | 3.0 | 0.00 | 0.00 | 0.00 | 75 | 1021.7 |
| 20260508221104 | 58 | 195 | 0.0 | 3.0 | 0.00 | 0.00 | 0.00 | 74 | 1021.6 |
| 20260508220606 | 58 | 211 | 1.0 | 3.0 | 0.00 | 0.00 | 0.00 | 73 | 1021.6 |
| 20260508220104 | 59 | 211 | 1.0 | 3.0 | 0.00 | 0.00 | 0.00 | 73 | 1021.6 |
| 20260508215605 | 59 | 195 | 1.0 | 3.0 | 0.00 | 0.00 | 0.00 | 72 | 1021.5 |
| 20260508215104 | 59 | 201 | 1.0 | 3.0 | 0.00 | 0.00 | 0.00 | 72 | 1021.5 |
| 20260508214106 | 59 | 195 | 1.0 | 3.0 | 0.00 | 0.00 | 0.00 | 71 | 1021.4 |
| 20260508213605 | 60 | 232 | 1.0 | 3.0 | 0.00 | 0.00 | 0.00 | 70 | 1021.4 |
| 20260508213106 | 60 | 195 | 1.0 | 3.0 | 0.00 | 0.00 | 0.00 | 71 | 1021.4 |
| 20260508212604 | 60 | 210 | 0.0 | 3.0 | 0.00 | 0.00 | 0.00 | 70 | 1021.4 |
| 20260508212105 | 60 | 195 | 1.0 | 3.0 | 0.00 | 0.00 | 0.00 | 70 | 1021.4 |
| 20260508211604 | 60 | 200 | 1.0 | 5.0 | 0.00 | 0.00 | 0.00 | 68 | 1021.4 |
| 20260508210604 | 62 | 211 | 1.0 | 5.0 | 0.00 | 0.00 | 0.00 | 68 | 1021.3 |
| 20260508210104 | 62 | 195 | 2.0 | 5.0 | 0.00 | 0.00 | 0.00 | 68 | 1021.1 |
| 20260508205604 | 62 | 206 | 1.0 | 3.0 | 0.00 | 0.00 | 0.00 | 69 | 1021.2 |
| 20260508204605 | 61 | 212 | 1.0 | 5.0 | 0.00 | 0.00 | 0.00 | 69 | 1021.0 |
| 20260508204104 | 61 | 214 | 1.0 | 6.0 | 0.00 | 0.00 | 0.00 | 69 | 1020.9 |
| 20260508203104 | 61 | 195 | 2.0 | 6.0 | 0.00 | 0.00 | 0.00 | 70 | 1020.8 |
| 20260508202604 | 60 | 206 | 2.0 | 7.0 | 0.00 | 0.00 | 0.00 | 70 | 1020.9 |
| 20260508202104 | 60 | 210 | 2.0 | 7.0 | 0.00 | 0.00 | 0.00 | 69 | 1020.8 |
| 20260508201604 | 60 | 215 | 1.0 | 5.0 | 0.00 | 0.00 | 0.00 | 70 | 1020.8 |
| 20260508201104 | 60 | 223 | 1.0 | 3.0 | 0.00 | 0.00 | 0.00 | 70 | 1020.7 |
| 20260508200604 | 60 | 214 | 1.0 | 3.0 | 0.00 | 0.00 | 0.00 | 70 | 1020.7 |
| 20260508200104 | 60 | 222 | 1.0 | 5.0 | 0.00 | 0.00 | 0.00 | 69 | 1020.8 |
| 20260508195604 | 60 | 195 | 2.0 | 5.0 | 0.00 | 0.00 | 0.00 | 69 | 1020.7 |
| 20260508195104 | 60 | 211 | 1.0 | 8.0 | 0.00 | 0.00 | 0.00 | 68 | 1020.7 |
| 20260508194604 | 60 | 206 | 2.0 | 8.0 | 0.00 | 0.00 | 0.00 | 67 | 1020.6 |
| 20260508194104 | 61 | 195 | 1.0 | 6.0 | 0.00 | 0.00 | 0.00 | 69 | 1020.5 |
| 20260508193604 | 61 | 195 | 2.0 | 6.0 | 0.00 | 0.00 | 0.00 | 68 | 1020.5 |
| 20260508193105 | 61 | 195 | 1.0 | 6.0 | 0.00 | 0.00 | 0.00 | 68 | 1020.5 |
| 20260508192605 | 61 | 196 | 1.0 | 6.0 | 0.00 | 0.00 | 0.00 | 68 | 1020.4 |
| 20260508191604 | 61 | 195 | 1.0 | 6.0 | 0.00 | 0.00 | 0.00 | 71 | 1020.5 |
| 20260508191104 | 60 | 195 | 2.0 | 6.0 | 0.00 | 0.00 | 0.00 | 70 | 1020.3 |
| 20260508190604 | 60 | 214 | 2.0 | 6.0 | 0.00 | 0.00 | 0.00 | 70 | 1020.4 |
| 20260508190105 | 60 | 197 | 1.0 | 6.0 | 0.00 | 0.00 | 0.00 | 70 | 1020.3 |
| 20260508185605 | 59 | 209 | 1.0 | 5.0 | 0.00 | 0.00 | 0.00 | 71 | 1020.2 |
| 20260508185104 | 59 | 213 | 1.0 | 5.0 | 0.00 | 0.00 | 0.00 | 71 | 1020.3 |
| 20260508184604 | 59 | 195 | 1.0 | 5.0 | 0.00 | 0.00 | 0.00 | 73 | 1020.3 |
| 20260508183604 | 58 | 195 | 1.0 | 5.0 | 0.00 | 0.00 | 0.00 | 72 | 1020.3 |
| 20260508182105 | 57 | 195 | 1.0 | 3.0 | 0.00 | 0.00 | 0.00 | 72 | 1020.2 |
| 20260508181604 | 57 | 195 | 1.0 | 3.0 | 0.00 | 0.00 | 0.00 | 72 | 1020.3 |
| 20260508180605 | 58 | 195 | 0.0 | 3.0 | 0.00 | 0.00 | 0.00 | 71 | 1020.2 |
| 20260508180104 | 57 | 215 | 1.0 | 3.0 | 0.00 | 0.00 | 0.00 | 71 | 1020.1 |
| 20260508175605 | 57 | 223 | 1.0 | 3.0 | 0.00 | 0.00 | 0.00 | 72 | 1020.1 |
| 20260508175105 | 57 | 195 | 2.0 | 3.0 | 0.00 | 0.00 | 0.00 | 72 | 1020.1 |
| 20260508174604 | 57 | 195 | 1.0 | 3.0 | 0.00 | 0.00 | 0.00 | 72 | 1020.1 |
| 20260508174105 | 57 | 213 | 0.0 | 3.0 | 0.00 | 0.00 | 0.00 | 72 | 1019.9 |
| 20260508173604 | 57 | 213 | 0.0 | 5.0 | 0.00 | 0.00 | 0.00 | 73 | 1020.0 |
| 20260508173104 | 56 | 213 | 1.0 | 5.0 | 0.00 | 0.00 | 0.00 | 73 | 1020.0 |
| 20260508172604 | 56 | 210 | 1.0 | 3.0 | 0.00 | 0.00 | 0.00 | 73 | 1019.9 |
| 20260508172104 | 56 | 208 | 0.0 | 3.0 | 0.00 | 0.00 | 0.00 | 72 | 1019.9 |
| 20260508171603 | 56 | 202 | 1.0 | 5.0 | 0.00 | 0.00 | 0.00 | 72 | 1019.8 |
| 20260508170105 | 56 | 212 | 0.0 | 3.0 | 0.00 | 0.00 | 0.00 | 71 | 1019.7 |
| 20260508165604 | 56 | 209 | 0.0 | 3.0 | 0.00 | 0.00 | 0.00 | 71 | 1019.7 |
| 20260508165104 | 56 | 212 | 0.0 | 3.0 | 0.00 | 0.00 | 0.00 | 72 | 1019.6 |